Voltar ao catálogo

FENGYUN 1C DEB

AtivoSSO
NORAD 30400·DEBRIS·🇨🇳 China

Lançado May 10, 1999 de Taiyuan Satellite Launch Center

Loading…

Próximas Passagens (próximas 24 horas)

TLE

AtualizadoSource: Space-Track

Época: Sep 13, 2026, 19:07 UTC

1 30400U 99025ADP 26256.79673203  .00002700  00000-0  11843-2 0  9998
2 30400  99.1601 195.2264 0217314 284.5717 102.2098 14.12727084993959

Acompanhe FENGYUN 1C DEB em tempo real com AllMySat

Download on the App Store